| time (UTC) | temp F | wind direction | speed MPH | gust MPH | rain 1hr in | rain 24hr in | rain mn in | humidity % | barometer mb |
| 20260510213517 | 73 | 17 | 7.0 | 12.0 | 0.00 | 0.00 | 0.00 | 58 | 1016.2 |
| 20260510212517 | 74 | 28 | 8.0 | 14.0 | 0.00 | 0.00 | 0.00 | 59 | 1016.2 |
| 20260510211517 | 75 | 30 | 6.0 | 11.0 | 0.00 | 0.00 | 0.00 | 61 | 1015.9 |
| 20260510210518 | 76 | 36 | 7.0 | 11.0 | 0.00 | 0.00 | 0.00 | 62 | 1015.5 |
| 20260510205517 | 76 | 13 | 9.0 | 15.0 | 0.00 | 0.00 | 0.00 | 64 | 1015.3 |
| 20260510204518 | 77 | 13 | 7.0 | 13.0 | 0.00 | 0.00 | 0.00 | 64 | 1015.8 |
| 20260510203517 | 79 | 3 | 7.0 | 12.0 | 0.00 | 0.00 | 0.00 | 57 | 1015.0 |
| 20260510202518 | 79 | 331 | 3.0 | 9.0 | 0.00 | 0.00 | 0.00 | 52 | 1015.6 |
| 20260510201517 | 79 | 316 | 3.0 | 6.0 | 0.00 | 0.00 | 0.00 | 52 | 1015.8 |
| 20260510200518 | 79 | 292 | 3.0 | 8.0 | 0.00 | 0.00 | 0.00 | 50 | 1015.2 |
| 20260510195517 | 79 | 336 | 5.0 | 13.0 | 0.00 | 0.00 | 0.00 | 51 | 1015.2 |
| 20260510194518 | 79 | 330 | 4.0 | 8.0 | 0.00 | 0.00 | 0.00 | 51 | 1015.2 |
| 20260510193518 | 78 | 334 | 4.0 | 9.0 | 0.00 | 0.00 | 0.00 | 52 | 1015.7 |
| 20260510192538 | 79 | 348 | 5.0 | 9.0 | 0.00 | 0.00 | 0.00 | 52 | 1015.3 |
| 20260510191518 | 79 | 339 | 4.0 | 8.0 | 0.00 | 0.00 | 0.00 | 51 | 1015.5 |
| 20260510190536 | 79 | 15 | 4.0 | 7.0 | 0.00 | 0.00 | 0.00 | 51 | 1015.4 |
| 20260510185515 | 78 | 358 | 3.0 | 6.0 | 0.00 | 0.00 | 0.00 | 53 | 1015.2 |
| 20260510184537 | 78 | 347 | 3.0 | 7.0 | 0.00 | 0.00 | 0.00 | 52 | 1015.1 |
| 20260510183516 | 79 | 310 | 4.0 | 9.0 | 0.00 | 0.00 | 0.00 | 51 | 1015.0 |
| 20260510182516 | 78 | 294 | 3.0 | 7.0 | 0.00 | 0.00 | 0.00 | 51 | 1015.1 |
| 20260510181516 | 77 | 311 | 4.0 | 9.0 | 0.00 | 0.00 | 0.00 | 53 | 1015.3 |
| 20260510180517 | 77 | 17 | 3.0 | 6.0 | 0.00 | 0.00 | 0.00 | 54 | 1015.3 |
| 20260510175517 | 78 | 22 | 3.0 | 5.0 | 0.00 | 0.00 | 0.00 | 51 | 1015.2 |
| 20260510174517 | 77 | 311 | 3.0 | 7.0 | 0.00 | 0.00 | 0.00 | 55 | 1015.3 |
| 20260510173557 | 76 | 333 | 3.0 | 8.0 | 0.00 | 0.00 | 0.00 | 55 | 1015.3 |
| 20260510172517 | 76 | 12 | 4.0 | 11.0 | 0.00 | 0.00 | 0.00 | 56 | 1015.6 |
| 20260510171517 | 76 | 13 | 5.0 | 9.0 | 0.00 | 0.00 | 0.00 | 56 | 1015.6 |
| 20260510170518 | 76 | 342 | 5.0 | 10.0 | 0.00 | 0.00 | 0.00 | 56 | 1015.9 |
| 20260510165517 | 76 | 2 | 5.0 | 9.0 | 0.00 | 0.00 | 0.00 | 56 | 1015.7 |
| 20260510164539 | 76 | 5 | 5.0 | 9.0 | 0.00 | 0.00 | 0.00 | 57 | 1015.9 |
| 20260510163518 | 76 | 27 | 4.0 | 7.0 | 0.00 | 0.00 | 0.00 | 57 | 1015.3 |
| 20260510162519 | 76 | 15 | 5.0 | 9.0 | 0.00 | 0.00 | 0.00 | 59 | 1015.3 |
| 20260510161518 | 76 | 9 | 4.0 | 10.0 | 0.00 | 0.00 | 0.00 | 59 | 1015.5 |
| 20260510160519 | 77 | 321 | 4.0 | 11.0 | 0.00 | 0.00 | 0.00 | 53 | 1015.1 |
| 20260510155538 | 78 | 303 | 5.0 | 9.0 | 0.00 | 0.00 | 0.00 | 49 | 1015.1 |
| 20260510154558 | 79 | 297 | 5.0 | 9.0 | 0.00 | 0.00 | 0.00 | 47 | 1014.8 |
| 20260510153516 | 78 | 291 | 3.0 | 8.0 | 0.00 | 0.00 | 0.00 | 47 | 1014.7 |
| 20260510152516 | 78 | 299 | 5.0 | 10.0 | 0.00 | 0.00 | 0.00 | 46 | 1014.7 |
| 20260510151516 | 77 | 284 | 3.0 | 7.0 | 0.00 | 0.00 | 0.00 | 48 | 1014.7 |
| 20260510150516 | 77 | 256 | 7.0 | 11.0 | 0.00 | 0.00 | 0.00 | 48 | 1014.5 |
| 20260510145516 | 77 | 263 | 5.0 | 9.0 | 0.00 | 0.00 | 0.00 | 49 | 1014.3 |
| 20260510144537 | 76 | 244 | 4.0 | 8.0 | 0.00 | 0.00 | 0.00 | 49 | 1014.0 |
| 20260510143517 | 75 | 233 | 3.0 | 6.0 | 0.00 | 0.00 | 0.00 | 52 | 1013.8 |
| 20260510142537 | 75 | 232 | 6.0 | 9.0 | 0.00 | 0.00 | 0.00 | 54 | 1013.9 |
| 20260510140518 | 73 | 230 | 4.0 | 8.0 | 0.00 | 0.00 | 0.00 | 58 | 1013.8 |
| 20260510135518 | 72 | 234 | 5.0 | 8.0 | 0.00 | 0.00 | 0.00 | 58 | 1014.1 |
| 20260510134517 | 71 | 233 | 4.0 | 7.0 | 0.00 | 0.00 | 0.00 | 59 | 1014.1 |
| 20260510133517 | 70 | 237 | 3.0 | 6.0 | 0.00 | 0.00 | 0.00 | 61 | 1013.9 |
| 20260510132538 | 68 | 223 | 4.0 | 5.0 | 0.00 | 0.00 | 0.00 | 65 | 1013.9 |
| 20260510131519 | 66 | 216 | 4.0 | 7.0 | 0.00 | 0.00 | 0.00 | 68 | 1014.2 |
| 20260510130539 | 66 | 232 | 5.0 | 7.0 | 0.00 | 0.00 | 0.00 | 68 | 1014.3 |
| 20260510125518 | 65 | 229 | 4.0 | 7.0 | 0.00 | 0.00 | 0.00 | 68 | 1013.9 |
| 20260510124518 | 64 | 222 | 4.0 | 6.0 | 0.00 | 0.00 | 0.00 | 68 | 1013.8 |
| 20260510123519 | 63 | 219 | 4.0 | 6.0 | 0.00 | 0.00 | 0.00 | 71 | 1014.0 |
| 20260510122539 | 62 | 219 | 5.0 | 7.0 | 0.00 | 0.00 | 0.00 | 72 | 1014.0 |
| 20260510121518 | 61 | 230 | 4.0 | 6.0 | 0.00 | 0.00 | 0.00 | 74 | 1013.9 |
| 20260510120519 | 60 | 231 | 4.0 | 6.0 | 0.00 | 0.00 | 0.00 | 75 | 1013.8 |
| 20260510115516 | 59 | 241 | 3.0 | 5.0 | 0.00 | 0.00 | 0.00 | 78 | 1013.8 |
| 20260510114516 | 58 | 218 | 3.0 | 5.0 | 0.00 | 0.00 | 0.00 | 81 | 1013.8 |
| 20260510113536 | 58 | 218 | 2.0 | 3.0 | 0.00 | 0.00 | 0.00 | 81 | 1013.8 |
| 20260510112536 | 58 | 199 | 2.0 | 3.0 | 0.00 | 0.00 | 0.00 | 81 | 1013.9 |
| 20260510111516 | 57 | 222 | 1.0 | 3.0 | 0.00 | 0.00 | 0.00 | 81 | 1013.9 |
| 20260510110536 | 58 | 203 | 2.0 | 3.0 | 0.00 | 0.00 | 0.00 | 80 | 1013.9 |
| 20260510105516 | 58 | 219 | 1.0 | 2.0 | 0.00 | 0.00 | 0.00 | 79 | 1014.1 |
| 20260510104517 | 59 | 206 | 2.0 | 4.0 | 0.00 | 0.00 | 0.00 | 77 | 1013.9 |
| 20260510103517 | 60 | 210 | 2.0 | 4.0 | 0.00 | 0.00 | 0.00 | 73 | 1013.7 |
| 20260510102517 | 60 | 240 | 2.0 | 4.0 | 0.00 | 0.00 | 0.00 | 73 | 1013.7 |
| 20260510101517 | 60 | 351 | 3.0 | 5.0 | 0.00 | 0.00 | 0.00 | 72 | 1013.5 |
| 20260510100517 | 59 | 241 | 2.0 | 5.0 | 0.00 | 0.00 | 0.00 | 72 | 1013.2 |
| 20260510095517 | 57 | 351 | 4.0 | 11.0 | 0.00 | 0.00 | 0.00 | 82 | 1013.6 |
| 20260510094517 | 58 | 289 | 0.0 | 1.0 | 0.00 | 0.00 | 0.00 | 82 | 1013.6 |
| 20260510093518 | 59 | 223 | 0.0 | 2.0 | 0.00 | 0.00 | 0.00 | 80 | 1013.5 |
| 20260510092537 | 60 | 251 | 0.0 | 2.0 | 0.00 | 0.00 | 0.00 | 75 | 1013.2 |
| 20260510091517 | 61 | 239 | 1.0 | 2.0 | 0.00 | 0.00 | 0.00 | 71 | 1013.0 |
| 20260510090518 | 60 | 252 | 2.0 | 4.0 | 0.00 | 0.00 | 0.00 | 73 | 1012.9 |
| 20260510085518 | 61 | 230 | 2.0 | 4.0 | 0.00 | 0.00 | 0.00 | 71 | 1012.7 |
| 20260510084519 | 61 | 223 | 2.0 | 3.0 | 0.00 | 0.00 | 0.00 | 69 | 1012.7 |
| 20260510083519 | 61 | 250 | 2.0 | 3.0 | 0.00 | 0.00 | 0.00 | 73 | 1012.5 |
| 20260510082536 | 61 | 235 | 3.0 | 4.0 | 0.00 | 0.00 | 0.00 | 71 | 1012.4 |
| 20260510081516 | 62 | 226 | 2.0 | 4.0 | 0.00 | 0.00 | 0.00 | 68 | 1012.3 |
| 20260510080515 | 62 | 226 | 3.0 | 5.0 | 0.00 | 0.00 | 0.00 | 69 | 1012.3 |
| 20260510075516 | 62 | 224 | 4.0 | 6.0 | 0.00 | 0.00 | 0.00 | 67 | 1012.1 |
| 20260510074516 | 62 | 231 | 4.0 | 6.0 | 0.00 | 0.00 | 0.00 | 69 | 1012.4 |
| 20260510073517 | 63 | 232 | 3.0 | 4.0 | 0.00 | 0.00 | 0.00 | 68 | 1012.3 |
| 20260510072516 | 63 | 220 | 4.0 | 5.0 | 0.00 | 0.00 | 0.00 | 65 | 1012.1 |
| 20260510071518 | 63 | 252 | 3.0 | 4.0 | 0.00 | 0.00 | 0.00 | 67 | 1012.4 |
| 20260510070517 | 63 | 247 | 3.0 | 4.0 | 0.00 | 0.00 | 0.00 | 65 | 1012.1 |
| 20260510065517 | 63 | 243 | 3.0 | 5.0 | 0.00 | 0.00 | 0.00 | 66 | 1012.0 |
| 20260510064517 | 63 | 240 | 4.0 | 5.0 | 0.00 | 0.00 | 0.00 | 66 | 1012.0 |
| 20260510063518 | 63 | 225 | 4.0 | 5.0 | 0.00 | 0.00 | 0.00 | 66 | 1011.9 |
| 20260510062517 | 64 | 231 | 3.0 | 4.0 | 0.00 | 0.00 | 0.00 | 66 | 1012.0 |
| 20260510061517 | 63 | 229 | 4.0 | 5.0 | 0.00 | 0.00 | 0.00 | 66 | 1012.1 |
| 20260510060518 | 64 | 239 | 3.0 | 4.0 | 0.00 | 0.00 | 0.00 | 67 | 1012.2 |
| 20260510055517 | 64 | 237 | 2.0 | 3.0 | 0.00 | 0.00 | 0.00 | 64 | 1012.0 |
| 20260510054536 | 63 | 242 | 2.0 | 4.0 | 0.00 | 0.00 | 0.00 | 68 | 1012.1 |
| 20260510053516 | 64 | 239 | 3.0 | 3.0 | 0.00 | 0.00 | 0.00 | 68 | 1012.2 |
| 20260510052516 | 64 | 228 | 2.0 | 3.0 | 0.00 | 0.00 | 0.00 | 65 | 1012.1 |
| 20260510051516 | 65 | 236 | 3.0 | 4.0 | 0.00 | 0.00 | 0.00 | 64 | 1011.9 |
| 20260510050516 | 65 | 223 | 2.0 | 4.0 | 0.00 | 0.00 | 0.00 | 64 | 1012.0 |
| 20260510045536 | 65 | 241 | 2.0 | 3.0 | 0.00 | 0.00 | 0.00 | 65 | 1011.8 |
| 20260510044516 | 65 | 239 | 2.0 | 4.0 | 0.00 | 0.00 | 0.00 | 64 | 1011.8 |
| 20260510043516 | 65 | 237 | 3.0 | 4.0 | 0.00 | 0.00 | 0.00 | 62 | 1011.8 |
| 20260510042517 | 66 | 231 | 3.0 | 5.0 | 0.00 | 0.00 | 0.00 | 62 | 1011.8 |
| 20260510041517 | 65 | 233 | 4.0 | 6.0 | 0.00 | 0.00 | 0.00 | 63 | 1011.8 |
| 20260510040517 | 65 | 236 | 4.0 | 6.0 | 0.00 | 0.00 | 0.00 | 63 | 1011.8 |
| 20260510035517 | 65 | 233 | 4.0 | 6.0 | 0.00 | 0.00 | 0.00 | 64 | 1012.0 |
| 20260510034517 | 66 | 233 | 3.0 | 4.0 | 0.00 | 0.00 | 0.00 | 64 | 1012.0 |
| 20260510033518 | 66 | 220 | 3.0 | 4.0 | 0.00 | 0.00 | 0.00 | 62 | 1012.0 |
| 20260510032518 | 66 | 233 | 3.0 | 4.0 | 0.00 | 0.00 | 0.00 | 62 | 1012.0 |
| 20260510031518 | 66 | 235 | 2.0 | 3.0 | 0.00 | 0.00 | 0.00 | 65 | 1012.2 |
| 20260510030519 | 66 | 226 | 2.0 | 3.0 | 0.00 | 0.00 | 0.00 | 66 | 1012.2 |
| 20260510025538 | 67 | 209 | 1.0 | 2.0 | 0.00 | 0.00 | 0.00 | 65 | 1012.2 |
| 20260510024518 | 68 | 211 | 1.0 | 2.0 | 0.00 | 0.00 | 0.00 | 62 | 1012.2 |
| 20260510023518 | 69 | 210 | 1.0 | 3.0 | 0.00 | 0.00 | 0.00 | 58 | 1012.0 |
| 20260510022518 | 70 | 241 | 2.0 | 4.0 | 0.00 | 0.00 | 0.00 | 55 | 1011.8 |
| 20260510021518 | 70 | 240 | 2.0 | 3.0 | 0.00 | 0.00 | 0.00 | 56 | 1011.8 |
| 20260510020516 | 71 | 226 | 2.0 | 3.0 | 0.00 | 0.00 | 0.00 | 55 | 1011.7 |
| 20260510015516 | 72 | 224 | 2.0 | 3.0 | 0.00 | 0.00 | 0.00 | 51 | 1011.4 |
| 20260510014516 | 73 | 241 | 2.0 | 3.0 | 0.00 | 0.00 | 0.00 | 49 | 1011.2 |
| 20260510013516 | 73 | 261 | 2.0 | 4.0 | 0.00 | 0.00 | 0.00 | 49 | 1011.1 |
| 20260510012516 | 73 | 239 | 2.0 | 3.0 | 0.00 | 0.00 | 0.00 | 49 | 1011.1 |
| 20260510011516 | 74 | 242 | 2.0 | 4.0 | 0.00 | 0.00 | 0.00 | 47 | 1011.0 |
| 20260510010536 | 75 | 236 | 3.0 | 4.0 | 0.00 | 0.00 | 0.00 | 45 | 1010.8 |
| 20260510005516 | 75 | 244 | 3.0 | 5.0 | 0.00 | 0.00 | 0.00 | 44 | 1010.7 |
| 20260510004517 | 76 | 218 | 4.0 | 5.0 | 0.00 | 0.00 | 0.00 | 43 | 1010.6 |
| 20260510003517 | 77 | 233 | 3.0 | 5.0 | 0.00 | 0.00 | 0.00 | 41 | 1010.4 |
| 20260510002517 | 78 | 232 | 4.0 | 5.0 | 0.00 | 0.00 | 0.00 | 40 | 1010.2 |
| 20260510001518 | 79 | 245 | 4.0 | 6.0 | 0.00 | 0.00 | 0.00 | 39 | 1010.1 |
| 20260510000518 | 79 | 229 | 5.0 | 7.0 | 0.00 | 0.00 | 0.00 | 38 | 1010.0 |
| 20260509235517 | 80 | 238 | 4.0 | 6.0 | 0.00 | 0.00 | 0.00 | 37 | 1009.8 |
| 20260509234518 | 80 | 242 | 4.0 | 7.0 | 0.00 | 0.00 | 0.00 | 36 | 1009.6 |
| 20260509233518 | 80 | 239 | 5.0 | 9.0 | 0.00 | 0.00 | 0.00 | 36 | 1009.6 |
| 20260509232538 | 80 | 259 | 3.0 | 8.0 | 0.00 | 0.00 | 0.00 | 35 | 1009.6 |
| 20260509231518 | 80 | 224 | 5.0 | 8.0 | 0.00 | 0.00 | 0.00 | 36 | 1009.6 |
| 20260509230538 | 80 | 235 | 4.0 | 8.0 | 0.00 | 0.00 | 0.00 | 35 | 1009.6 |
| 20260509225518 | 81 | 263 | 3.0 | 8.0 | 0.00 | 0.00 | 0.00 | 34 | 1009.7 |
| 20260509224518 | 80 | 299 | 3.0 | 7.0 | 0.00 | 0.00 | 0.00 | 34 | 1009.8 |
| 20260509223518 | 80 | 257 | 3.0 | 8.0 | 0.00 | 0.00 | 0.00 | 33 | 1010.1 |
| 20260509222516 | 80 | 180 | 2.0 | 8.0 | 0.00 | 0.00 | 0.00 | 33 | 1010.3 |
| 20260509221536 | 81 | 241 | 4.0 | 8.0 | 0.00 | 0.00 | 0.00 | 32 | 1010.2 |
| 20260509220516 | 81 | 281 | 3.0 | 7.0 | 0.00 | 0.00 | 0.00 | 32 | 1009.5 |
| 20260509215516 | 81 | 258 | 3.0 | 7.0 | 0.00 | 0.00 | 0.00 | 33 | 1009.3 |
| 20260509214516 | 81 | 233 | 2.0 | 5.0 | 0.00 | 0.00 | 0.00 | 32 | 1009.3 |